Погода в Барановичи

Погода в Барановичи : погода сейчас, прогноз погоды и архив. Всё, что Вы хотите узнать о погоде в Барановичи!

Хотите узнать прогноз погоды в Барановичи? Тогда Вам сюда: Погода в Барановичи

Поиск расширенной информации на нашем сайте:

Полезная информация:

Другие новости

Новости СМИ2

Главная страница сайта

Новости сайта

03.07.2017

Напоминаем, что на нашем специализированном сайте Метеоцентр.Азия вы можете получить высокодетализированные автоматические прогнозы погоды по пунктам России, СНГ и мира в авиационном формате (включающие направление и скорость ветра, видимость, явления погоды, количество и форму облачности, нижнюю и верхнюю границу облачности).

Рекомендуем:

Погода в Барановичи - сегодня

Время (UTC), дата Ветер
(°,м/с) 
Видим.   Явления Облачность Т
(°С)
Тd
(°С)
f(%) Тe
(°С)
Pmin
(гПа)
dP
(гПа)
Po
(мм)
O2
(г/м3)
Тmin Tmax R s Состояние
почвы
03 22.03.19 280 (З) 5{11}  6000 м  дымка  9/9 600 м 
[Sc]
+8.5 +7.1 91 +7  1022.2  -1.1  749  291           
06 22.03.19 310 (СЗ) 5-10{11}  10 км  {морось}  10/10 300 м 
[St]
+8.3 +6.2 87 +7  1024.3  2.1  751  292  +6.6    0.0     
09 22.03.19 320 (СЗ) 10-15{14}  18000 м    6/6 1000 м 
[Sc]
+9.7 +2.3 60 +7  1025.4  1.2  751  292           
12 22.03.19 330 (СЗ) 9-14{16}  18000 м    5/0 верхняя 
[Ci sp]
+9.3 -5.9 34 +7  1026.7  1.2  752  294           
15 22.03.19 330 (СЗ) 8-13{15}  13000 м    3/0 верхняя 
[Ci fib]
+7.8 -9 29 +5  1027.7  0.8  753  296           
18 22.03.19 320 (СЗ) 5{13}  10 км    ясно 
+4.5 -7.6 41 +2  1029  754  300    +10.4       
21 22.03.19 320 (СЗ) 10 км    ясно 
+2.6 -6.6 51 1029.1  -0.1  754  301           
00 23.03.19 320 (СЗ) 10 км    8/0 верхняя 
[Ci fib]
+0.3 -5.9 63 -1  1030.1  0.8  754  304           
03 23.03.19 310 (СЗ) 10 км    ясно 
-1.6 -6.6 69 -3  1030  -0.3  754  306           
06 23.03.19 310 (СЗ) 10 км    ясно 
+0.1 -5.9 64 -1  1030.4  0.6  754  305  -2.5         
09 23.03.19 340 (С) 10 км    ясно 
+5.6 -9.4 33 +5  1029.5  -0.4  754  299           
12 23.03.19 310 (СЗ) 10 км    ясно 
+9.8 -10.2 23 +11  1026.9  -2.2  752  294           
15 23.03.19 280 (З) 10 км    ясно 
+12 -10.6 19 +13  1024.1  -2.5  751  291           
18 23.03.19 200 (Ю) 10 км    ясно 
+7.4 -9.8 28 +8  1022.9  -1.6  749  295    +12.3       
21 23.03.19 220 (ЮЗ) 10 км    ясно 
+5.4 -8.4 36 +5  1021.8  -1.2  749  297           
00 24.03.19 250 (З) 10 км    8/0 средняя 
[Ac As]
+6 -7.3 38 +5  1019  -2.7  746  295           
03 24.03.19 300 (СЗ) 10 км    6/0 средняя 
[Ac As]
+5.6 +1.6 75 +4  1018.2  -0.8  746  294           
06 24.03.19 300 (СЗ) 10 км    4/4 600 м 
[Sc]
+3.8 +1.1 83 +1  1019.4  747  297  +3.3         
09 24.03.19 290 (З) 7-11{10}  10 км    ясно 
+7.3 -2.9 48 +5  1019.5  0.4  747  293           
12 24.03.19 320 (СЗ) 6-10{12}  10 км    10/1 1000 м верхняя 
[Cu hum|Ci fib]
+9.5 -4 38 +8  1018.2  -1.1  746  291           
15 24.03.19 320 (СЗ) 5{11}  10 км    10/3 1000 м верхняя 
[Sc|Ci sp]
+8.9 -4.8 38 +7  1017.3  -0.9  745  291           
18 24.03.19 310 (СЗ) 10 км    10/0 верхняя 
[Ci fib]
+5.1 -4.6 49 +5  1017.4  -0.3  745  295    +10.6       
21 24.03.19 290 (З) 10 км    10/0 средняя, верхняя 
[Ac trans|Ci fib]
+3.1 -4.1 59 +4  1016.2  -1.3  744  297           
00 25.03.19 тихо ()   10 км    9/0 средняя 
[Ac und]
+2 -4.2 63 +2  1014.9  -1.4  743  298           
03 25.03.19 тихо ()   10 км    9/0 средняя 
[Ac und]
+0.9 -3.5 72 +1  1013.7  -1.3  742  298           
Время (UTC), дата Ветер
(°,м/с) 
Видим.   Явления Облачность Т
(°С)
Тd
(°С)
f(%) Тe
(°С)
Pmin
(гПа)
dP
(гПа)
Po
(мм)
O2
(г/м3)
Тmin Tmax R s Состояние
почвы

Для получения пояснительной информации подведите курсор к названию столбца.

ПОГОДА в Барановичи - архив

Всё, что Вы хотите узнать о погоде в Барановичи - удобно и подробно!

Выберите нужную дату (начиная с 1 января 2018* года) и нажмите кнопку "Найти".
Будут отображены архивные сводки погоды по пункту Барановичи, начиная с указанной даты.


Отображать данные в формате CSV (для использования в таблицах Excel)


Внимание! Наш архив погоды предназначен исключительно для личного некоммерческого использования в познавательных целях. Если Вам необходимы официальные справки о состоянии погоды (для производственных, юридических, коммерческих и т.п. целей), обращайтесь в органы Росгидромета.

*Примечание: данная дата относится к архиву по метеостанциям СССР (Россия, СНГ, Балтия).
Архив по метеостанциям Зарубежной Европы и Азии (кроме Китая) хранится 10 дней, по другим регионам земного шара (Китай, Африка, Америка, Австралия, Океания) - 1 день.

Барановичи - район местоположения метеостанции


Название, широта, долгота, высота метеостанции:
Барановичи 53.1°ш. 26°д. 193 м над ур. моря [Беларусь]

Дополнительная информация

В oтличие oт бoльшинства пoгoдных сайтoв мы публикуем пoдрoбную метеoинфoрмацию в детальнoм прoфессиoнальнoм фoрмате.

Характеристики температуры и влажнoсти вoздуха измеряются на высoте 2 м в тени вдали oт зданий и деревьев.
Скoрoсть ветра измеряется на высoте 10 м (на урoвне рoста челoвека скoрoсть ветра ниже в 1.5-2 раза). Если метеoстанция нахoдится в гoрoде или в лесу, тo скoрoсть ветра занижена на 2-4 м/с пo сравнению с oткрытым местoм. Скoрoсть ветра над акватoриями крупных рек и oзёр, а также на вершинах хoлмoв на 2-5 м/с выше, чем в oбычных услoвиях.
Атмoсфернoе давление в разных тoчках местнoсти мoжет значительнo oтличаться oт давления на метеoстанции, в зависимoсти oт услoвий рельефа (при пoдъёме на 10 м давление пoнижается примернo на 1 мм рт.ст.).